WESTFORD NEEDLES, 2949

Orbit data source: Space-Track

WESTFORD NEEDLES, 2949 is space debris in LEO originally from a launch on Thu, 09 May 1963 UTC launched from the Air Force Western Test Range (AFWTR). Debris objects in space refer to the collection of defunct objects orbiting the Earth. Examples of debris include non-operational satellites, rocket bodies, and fragments generated from explosions, collisions, or faulty payload assembly.

Loading next visibility...
Identifier
2949, 1963-014AS
Orbit
LEO
Country
Flag of USUS
Related business
Manufacturer
Unknown
Mission
Spacecraft
Bus & Motor
Unknown
Mass
Unknown
Launch date (UTC)
1963-05-09 (63 years ago)
Launch vehicle
Unknown
Launch site
Air Force Western Test Range (AFWTR)
Object type
Payload
Rocket body
Debris
Shape & HBR
Unknown shape, 0.2 m
Radar Cross Section
Medium (>0.1 m² and <1 m²)

Expand to show TLE details & history
Last TLE update: 7 hours ago

TLE from 7 hours ago
0 WESTFORD NEEDLES
1  2949U 63014AS  26034.44516824  .00000992  00000-0  21080-1 0  9999
2  2949  85.5470  24.1514 2297920 243.5555 301.4207  8.85477575383964
Epoch: 2026-02-03T10:41Z
TLE epoch observation values (Epoch: 2026-02-03T10:41:02.535Z)
Latitude
20.46943°
Longitude
-91.39379°
Altitude
2,755.921 km
Speed
6.85 km/s
True Right ascension
13h 29m 58s
True Declination
20° 22' 54"
Sunlit
Object was in daylight at epoch
Visualization orbit readout
Latitude
Unknown
Longitude
Unknown
Altitude
Unknown
Speed
Unknown
Apparent Right ascension
Unknown
Apparent Declination
Unknown
Sunlit
N/A
Visualization observer readout
Local Sidereal Time
19:37:04
Azimuth
Unknown
Elevation
Unknown
Doppler factor
Unknown
Orbital elements
Apogee altitude
5,756.054 km
Perigee altitude
1,221.401 km
Semi-major axis
9,866.864 km
Eccentricity
0.22979
Inclination
85.547°
RAAN
24.1514°
Arg. of periapsis
243.5555°
True anomaly
275.91°
Mean anomaly
301.4207°
Eccentric anomaly
288.96963°
Mean motion
2.21449 °/min
Orbital period
162.57 mins
BSTAR
0.02108

Documentation

Showing up to 5 results
|